PRIVATE WETTERSTATION BILLIGHEIM-ALLFELD                       ZURCK
Wetterdaten: Donnerstag, 19.06.2014
Datum Zeit Temp. A. Temp. A. min Temp. A. max Feuchte A. Luftdruck Regen Wind Richtung Richtung Sonnenschein ET Solar Taupunkt Windchill Windben Empfang
19.06.2014 00:00 14,6 C 14,6 C 14,7 C 71 % 1017,1 hPa 0,0 l/m 0,0 km/h (0 Bft) N-NW 336 0 min 0,000 mm 0 W/m 9,4 C 14,6 C 0,0 km/h (0 Bft) 100 %
19.06.2014 00:10 14,6 C 14,6 C 14,6 C 71 % 1017,1 hPa 0,0 l/m 0,0 km/h (0 Bft) N-NW 336 0 min 4,978 mm 0 W/m 9,4 C 14,6 C 0,0 km/h (0 Bft) 100 %
19.06.2014 00:20 14,5 C 14,5 C 14,6 C 72 % 1017,2 hPa 0,0 l/m 0,0 km/h (0 Bft) N-NW 336 0 min 0,000 mm 0 W/m 9,5 C 14,5 C 1,6 km/h (1 Bft) 100 %
19.06.2014 00:30 14,4 C 14,4 C 14,5 C 72 % 1017,2 hPa 0,0 l/m 0,0 km/h (0 Bft) N-NW 336 0 min 0,000 mm 0 W/m 9,4 C 14,4 C 1,6 km/h (1 Bft) 91 %
19.06.2014 00:40 14,4 C 14,4 C 14,4 C 72 % 1017,3 hPa 0,0 l/m 0,0 km/h (0 Bft) N-NW 336 0 min 0,000 mm 0 W/m 9,4 C 14,4 C 1,6 km/h (1 Bft) 100 %
19.06.2014 00:50 14,3 C 14,3 C 14,4 C 72 % 1017,3 hPa 0,0 l/m 0,0 km/h (0 Bft) N-NW 336 0 min 0,000 mm 0 W/m 9,3 C 14,3 C 1,6 km/h (1 Bft) 100 %
19.06.2014 01:00 14,3 C 14,3 C 14,3 C 72 % 1017,2 hPa 0,0 l/m 0,1 km/h (0 Bft) NW 320 0 min 0,026 mm 0 W/m 9,3 C 14,3 C 3,2 km/h (1 Bft) 100 %
19.06.2014 01:10 14,2 C 14,2 C 14,3 C 73 % 1017,3 hPa 0,0 l/m 0,0 km/h (0 Bft) NW 319 0 min 0,000 mm 0 W/m 9,4 C 14,2 C 1,6 km/h (1 Bft) 100 %
19.06.2014 01:20 14,1 C 14,1 C 14,2 C 73 % 1017,3 hPa 0,0 l/m 0,0 km/h (0 Bft) NW 319 0 min 0,000 mm 0 W/m 9,3 C 14,1 C 1,6 km/h (1 Bft) 100 %
19.06.2014 01:30 14,1 C 14,1 C 14,1 C 73 % 1017,3 hPa 0,0 l/m 0,0 km/h (0 Bft) NW 319 0 min 0,000 mm 0 W/m 9,3 C 14,1 C 0,0 km/h (0 Bft) 100 %
19.06.2014 01:40 14,0 C 14,0 C 14,1 C 74 % 1017,2 hPa 0,0 l/m 0,1 km/h (0 Bft) NW 311 0 min 0,000 mm 0 W/m 9,4 C 14,0 C 3,2 km/h (1 Bft) 100 %
19.06.2014 01:50 13,8 C 13,8 C 14,0 C 74 % 1017,2 hPa 0,0 l/m 0,0 km/h (0 Bft) NW 311 0 min 0,000 mm 0 W/m 9,2 C 13,8 C 0,0 km/h (0 Bft) 100 %
19.06.2014 02:00 13,8 C 13,8 C 13,9 C 75 % 1017,2 hPa 0,0 l/m 0,2 km/h (0 Bft) W 275 0 min 0,025 mm 0 W/m 9,4 C 13,8 C 4,8 km/h (1 Bft) 100 %
19.06.2014 02:10 13,7 C 13,7 C 13,8 C 75 % 1017,3 hPa 0,0 l/m 0,0 km/h (0 Bft) W 275 0 min 0,000 mm 0 W/m 9,3 C 13,7 C 1,6 km/h (1 Bft) 100 %
19.06.2014 02:20 13,7 C 13,7 C 13,7 C 75 % 1017,3 hPa 0,0 l/m 0,0 km/h (0 Bft) W 275 0 min 0,000 mm 0 W/m 9,3 C 13,7 C 0,0 km/h (0 Bft) 100 %
19.06.2014 02:30 13,5 C 13,5 C 13,7 C 75 % 1017,3 hPa 0,0 l/m 0,2 km/h (0 Bft) W 275 0 min 0,000 mm 0 W/m 9,2 C 13,5 C 3,2 km/h (1 Bft) 100 %
19.06.2014 02:40 13,5 C 13,4 C 13,5 C 76 % 1017,2 hPa 0,0 l/m 0,1 km/h (0 Bft) W 275 0 min 0,000 mm 0 W/m 9,4 C 13,5 C 3,2 km/h (1 Bft) 100 %
19.06.2014 02:50 13,4 C 13,4 C 13,5 C 76 % 1017,3 hPa 0,0 l/m 0,2 km/h (0 Bft) N-NW 327 0 min 0,000 mm 0 W/m 9,3 C 13,4 C 9,7 km/h (2 Bft) 100 %
19.06.2014 03:00 13,3 C 13,3 C 13,4 C 76 % 1017,2 hPa 0,0 l/m 0,0 km/h (0 Bft) N-NW 327 0 min 0,026 mm 0 W/m 9,2 C 13,3 C 1,6 km/h (1 Bft) 100 %
19.06.2014 03:10 13,1 C 13,1 C 13,3 C 76 % 1017,2 hPa 0,0 l/m 0,0 km/h (0 Bft) W-NW 293 0 min 0,000 mm 0 W/m 9,0 C 13,1 C 3,2 km/h (1 Bft) 100 %
19.06.2014 03:20 12,9 C 12,9 C 13,1 C 77 % 1017,3 hPa 0,0 l/m 0,0 km/h (0 Bft) W-NW 293 0 min 0,000 mm 0 W/m 9,0 C 12,9 C 0,0 km/h (0 Bft) 100 %
19.06.2014 03:30 12,8 C 12,7 C 12,9 C 78 % 1017,2 hPa 0,0 l/m 0,1 km/h (0 Bft) SO 146 0 min 0,000 mm 0 W/m 9,1 C 12,8 C 1,6 km/h (1 Bft) 100 %
19.06.2014 03:40 12,7 C 12,7 C 12,8 C 79 % 1017,2 hPa 0,0 l/m 0,1 km/h (0 Bft) S-SO 148 0 min 0,000 mm 0 W/m 9,2 C 12,7 C 3,2 km/h (1 Bft) 100 %
19.06.2014 03:50 12,7 C 12,6 C 12,7 C 79 % 1017,2 hPa 0,0 l/m 0,0 km/h (0 Bft) S-SO 148 0 min 0,000 mm 0 W/m 9,2 C 12,7 C 1,6 km/h (1 Bft) 100 %
19.06.2014 04:00 12,7 C 12,7 C 12,7 C 79 % 1017,2 hPa 0,0 l/m 0,0 km/h (0 Bft) S-SO 148 0 min 0,025 mm 0 W/m 9,2 C 12,7 C 0,0 km/h (0 Bft) 100 %
19.06.2014 04:11 12,7 C 12,7 C 12,7 C 79 % 1017,2 hPa 0,0 l/m 0,0 km/h (0 Bft) S-SO 148 0 min 0,000 mm 0 W/m 9,2 C 12,7 C 1,6 km/h (1 Bft) 100 %
19.06.2014 04:20 12,6 C 12,6 C 12,7 C 79 % 1017,2 hPa 0,0 l/m 0,1 km/h (0 Bft) S-SO 148 0 min 0,000 mm 0 W/m 9,1 C 12,6 C 1,6 km/h (1 Bft) 100 %
19.06.2014 04:30 12,4 C 12,4 C 12,6 C 80 % 1017,3 hPa 0,0 l/m 0,0 km/h (0 Bft) S-SO 148 0 min 0,000 mm 0 W/m 9,0 C 12,4 C 0,0 km/h (0 Bft) 100 %
19.06.2014 04:40 12,2 C 12,2 C 12,4 C 80 % 1017,2 hPa 0,0 l/m 0,1 km/h (0 Bft) S-SO 149 0 min 0,000 mm 0 W/m 8,9 C 12,2 C 3,2 km/h (1 Bft) 91 %
19.06.2014 04:50 12,0 C 12,0 C 12,2 C 81 % 1017,2 hPa 0,0 l/m 0,0 km/h (0 Bft) S-SO 149 0 min 0,000 mm 0 W/m 8,8 C 12,0 C 1,6 km/h (1 Bft) 100 %
19.06.2014 05:00 11,8 C 11,8 C 12,0 C 81 % 1017,2 hPa 0,0 l/m 0,0 km/h (0 Bft) S-SO 149 0 min 0,025 mm 0 W/m 8,6 C 11,8 C 0,0 km/h (0 Bft) 100 %
19.06.2014 05:10 11,6 C 11,6 C 11,8 C 82 % 1017,1 hPa 0,0 l/m 0,0 km/h (0 Bft) S-SO 149 0 min 0,000 mm 0 W/m 8,6 C 11,6 C 0,0 km/h (0 Bft) 100 %
19.06.2014 05:20 11,3 C 11,3 C 11,6 C 83 % 1017,1 hPa 0,0 l/m 0,1 km/h (0 Bft) N 350 0 min 0,000 mm 0 W/m 8,5 C 11,3 C 1,6 km/h (1 Bft) 100 %
19.06.2014 05:30 11,1 C 11,1 C 11,3 C 83 % 1017,0 hPa 0,0 l/m 0,1 km/h (0 Bft) N 350 0 min 0,000 mm 5 W/m 8,3 C 11,1 C 3,2 km/h (1 Bft) 100 %
19.06.2014 05:40 10,9 C 10,9 C 11,1 C 84 % 1017,0 hPa 0,0 l/m 0,0 km/h (0 Bft) N 5 0 min 0,000 mm 9 W/m 8,3 C 10,9 C 1,6 km/h (1 Bft) 100 %
19.06.2014 05:50 10,7 C 10,7 C 10,9 C 85 % 1017,1 hPa 0,0 l/m 0,0 km/h (0 Bft) N 5 0 min 0,000 mm 12 W/m 8,3 C 10,7 C 1,6 km/h (1 Bft) 100 %
19.06.2014 06:00 10,6 C 10,6 C 10,7 C 85 % 1017,0 hPa 0,0 l/m 0,0 km/h (0 Bft) N 5 0 min 0,000 mm 16 W/m 8,2 C 10,6 C 1,6 km/h (1 Bft) 100 %
19.06.2014 06:10 10,4 C 10,4 C 10,6 C 85 % 1017,1 hPa 0,0 l/m 0,0 km/h (0 Bft) N 5 0 min 0,000 mm 19 W/m 8,0 C 10,4 C 1,6 km/h (1 Bft) 100 %
19.06.2014 06:20 10,3 C 10,3 C 10,4 C 86 % 1017,1 hPa 0,0 l/m 0,0 km/h (0 Bft) N 5 0 min 0,000 mm 23 W/m 8,1 C 10,3 C 0,0 km/h (0 Bft) 100 %
19.06.2014 06:30 10,4 C 10,3 C 10,4 C 86 % 1017,2 hPa 0,0 l/m 0,0 km/h (0 Bft) N 5 0 min 0,000 mm 26 W/m 8,2 C 10,4 C 0,0 km/h (0 Bft) 100 %
19.06.2014 06:40 10,6 C 10,4 C 10,6 C 86 % 1017,1 hPa 0,0 l/m 0,0 km/h (0 Bft) N 5 0 min 0,000 mm 30 W/m 8,4 C 10,6 C 0,0 km/h (0 Bft) 100 %
19.06.2014 06:50 10,7 C 10,6 C 10,7 C 86 % 1017,2 hPa 0,0 l/m 0,0 km/h (0 Bft) N 5 0 min 0,000 mm 35 W/m 8,5 C 10,7 C 0,0 km/h (0 Bft) 100 %
19.06.2014 07:00 10,9 C 10,7 C 10,9 C 86 % 1017,2 hPa 0,0 l/m 0,1 km/h (0 Bft) N 5 0 min 0,026 mm 42 W/m 8,7 C 10,9 C 3,2 km/h (1 Bft) 100 %
19.06.2014 07:10 11,1 C 10,9 C 11,1 C 86 % 1017,2 hPa 0,0 l/m 0,0 km/h (0 Bft) N 5 0 min 0,000 mm 46 W/m 8,8 C 11,1 C 1,6 km/h (1 Bft) 100 %
19.06.2014 07:20 11,3 C 11,1 C 11,3 C 86 % 1017,2 hPa 0,0 l/m 0,0 km/h (0 Bft) N-NW 335 0 min 0,000 mm 49 W/m 9,0 C 11,3 C 0,0 km/h (0 Bft) 100 %
19.06.2014 07:30 11,6 C 11,3 C 11,6 C 86 % 1017,2 hPa 0,0 l/m 0,0 km/h (0 Bft) N-NW 335 0 min 0,000 mm 49 W/m 9,3 C 11,6 C 0,0 km/h (0 Bft) 100 %
19.06.2014 07:40 11,9 C 11,6 C 11,9 C 86 % 1017,3 hPa 0,0 l/m 0,4 km/h (0 Bft) N-NW 331 0 min 0,000 mm 53 W/m 9,6 C 11,9 C 3,2 km/h (1 Bft) 100 %
19.06.2014 07:50 12,3 C 11,9 C 12,3 C 86 % 1017,3 hPa 0,0 l/m 0,2 km/h (0 Bft) N-NW 342 0 min 0,000 mm 63 W/m 10,0 C 12,3 C 4,8 km/h (1 Bft) 100 %
19.06.2014 08:00 12,7 C 12,3 C 12,7 C 85 % 1017,4 hPa 0,0 l/m 0,3 km/h (0 Bft) N-NW 329 0 min 0,025 mm 65 W/m 10,2 C 12,7 C 4,8 km/h (1 Bft) 100 %
19.06.2014 08:10 13,1 C 12,7 C 13,1 C 84 % 1017,4 hPa 0,0 l/m 0,2 km/h (0 Bft) N-NW 329 0 min 0,000 mm 76 W/m 10,5 C 13,1 C 3,2 km/h (1 Bft) 100 %
19.06.2014 08:20 13,7 C 13,1 C 13,7 C 83 % 1017,5 hPa 0,0 l/m 0,0 km/h (0 Bft) N-NW 329 10 min 0,000 mm 357 W/m 10,9 C 13,7 C 1,6 km/h (1 Bft) 100 %
19.06.2014 08:30 14,6 C 13,7 C 14,6 C 80 % 1017,6 hPa 0,0 l/m 0,3 km/h (0 Bft) N-NW 327 10 min 0,000 mm 383 W/m 11,2 C 14,6 C 4,8 km/h (1 Bft) 100 %
19.06.2014 08:40 15,7 C 14,6 C 15,7 C 77 % 1017,6 hPa 0,0 l/m 0,5 km/h (0 Bft) NW 318 10 min 0,000 mm 387 W/m 11,7 C 15,7 C 3,2 km/h (1 Bft) 100 %
19.06.2014 08:50 16,8 C 15,7 C 16,8 C 73 % 1017,6 hPa 0,0 l/m 0,1 km/h (0 Bft) N-NW 332 10 min 0,000 mm 450 W/m 11,9 C 16,8 C 3,2 km/h (1 Bft) 100 %
19.06.2014 09:00 17,6 C 16,8 C 17,6 C 71 % 1017,6 hPa 0,0 l/m 0,2 km/h (0 Bft) N-NW 329 10 min 0,178 mm 459 W/m 12,3 C 17,6 C 4,8 km/h (1 Bft) 100 %
19.06.2014 09:10 18,3 C 17,6 C 18,3 C 67 % 1017,4 hPa 0,0 l/m 0,1 km/h (0 Bft) N-NW 331 10 min 0,000 mm 489 W/m 12,1 C 18,3 C 1,6 km/h (1 Bft) 100 %
19.06.2014 09:20 18,7 C 18,3 C 18,7 C 65 % 1017,4 hPa 0,0 l/m 0,1 km/h (0 Bft) NW 320 10 min 0,000 mm 529 W/m 12,0 C 18,7 C 3,2 km/h (1 Bft) 100 %
19.06.2014 09:30 19,1 C 18,7 C 19,1 C 63 % 1017,2 hPa 0,0 l/m 1,9 km/h (1 Bft) NW 314 10 min 0,000 mm 559 W/m 11,9 C 19,1 C 9,7 km/h (2 Bft) 100 %
19.06.2014 09:40 19,7 C 19,1 C 19,7 C 61 % 1017,1 hPa 0,0 l/m 1,3 km/h (1 Bft) NW 305 10 min 0,000 mm 592 W/m 12,0 C 19,7 C 9,7 km/h (2 Bft) 100 %
19.06.2014 09:50 19,8 C 19,7 C 19,8 C 58 % 1017,2 hPa 0,0 l/m 0,9 km/h (0 Bft) NO 50 10 min 0,000 mm 615 W/m 11,3 C 19,8 C 11,3 km/h (2 Bft) 100 %
19.06.2014 10:00 20,3 C 19,8 C 20,3 C 59 % 1017,1 hPa 0,0 l/m 3,5 km/h (1 Bft) NW 306 10 min 0,330 mm 610 W/m 12,0 C 20,3 C 9,7 km/h (2 Bft) 100 %
19.06.2014 10:10 20,7 C 20,3 C 20,7 C 58 % 1017,1 hPa 0,0 l/m 2,5 km/h (1 Bft) NW 313 10 min 0,000 mm 207 W/m 12,1 C 20,7 C 9,7 km/h (2 Bft) 100 %
19.06.2014 10:20 20,7 C 20,6 C 20,7 C 58 % 1017,1 hPa 0,0 l/m 2,9 km/h (1 Bft) NW 320 10 min 0,000 mm 260 W/m 12,1 C 20,7 C 8,0 km/h (2 Bft) 100 %
19.06.2014 10:30 21,1 C 20,6 C 21,1 C 57 % 1017,0 hPa 0,0 l/m 0,2 km/h (0 Bft) NW 314 10 min 0,000 mm 724 W/m 12,2 C 21,1 C 6,4 km/h (2 Bft) 100 %
19.06.2014 10:40 20,9 C 20,9 C 21,2 C 55 % 1017,0 hPa 0,0 l/m 4,1 km/h (1 Bft) NW 304 10 min 0,000 mm 200 W/m 11,5 C 20,9 C 16,1 km/h (3 Bft) 100 %
19.06.2014 10:50 20,8 C 20,7 C 20,9 C 57 % 1016,9 hPa 0,0 l/m 0,9 km/h (0 Bft) NW 311 10 min 0,000 mm 891 W/m 12,0 C 20,8 C 4,8 km/h (1 Bft) 100 %
19.06.2014 11:00 21,0 C 20,8 C 21,1 C 57 % 1016,9 hPa 0,0 l/m 4,2 km/h (1 Bft) NW 320 10 min 0,330 mm 359 W/m 12,1 C 21,0 C 14,5 km/h (3 Bft) 100 %
19.06.2014 11:10 20,7 C 20,7 C 21,0 C 56 % 1016,9 hPa 0,0 l/m 4,9 km/h (1 Bft) NW 316 10 min 0,000 mm 236 W/m 11,6 C 20,7 C 17,7 km/h (3 Bft) 100 %
19.06.2014 11:20 20,9 C 20,7 C 20,9 C 55 % 1016,8 hPa 0,0 l/m 4,3 km/h (1 Bft) NW 306 10 min 0,000 mm 770 W/m 11,5 C 20,9 C 16,1 km/h (3 Bft) 100 %
19.06.2014 11:30 21,5 C 20,9 C 21,5 C 54 % 1016,8 hPa 0,0 l/m 5,6 km/h (1 Bft) NW 306 10 min 0,000 mm 754 W/m 11,8 C 21,5 C 16,1 km/h (3 Bft) 100 %
19.06.2014 11:40 21,9 C 21,5 C 21,9 C 51 % 1016,8 hPa 0,0 l/m 3,5 km/h (1 Bft) W-NW 298 10 min 0,000 mm 816 W/m 11,3 C 21,9 C 11,3 km/h (2 Bft) 100 %
19.06.2014 11:50 22,2 C 21,9 C 22,2 C 52 % 1016,7 hPa 0,0 l/m 9,1 km/h (2 Bft) NW 309 10 min 0,000 mm 861 W/m 11,9 C 21,3 C 20,9 km/h (4 Bft) 100 %
19.06.2014 12:00 22,2 C 22,2 C 22,3 C 52 % 1016,6 hPa 0,0 l/m 5,4 km/h (1 Bft) W-NW 300 10 min 0,432 mm 824 W/m 11,9 C 22,2 C 16,1 km/h (3 Bft) 100 %
19.06.2014 12:10 22,3 C 22,2 C 22,3 C 50 % 1016,6 hPa 0,0 l/m 6,0 km/h (2 Bft) NW 314 10 min 0,000 mm 330 W/m 11,4 C 22,3 C 17,7 km/h (3 Bft) 100 %
19.06.2014 12:20 21,9 C 21,9 C 22,4 C 49 % 1016,4 hPa 0,0 l/m 10,2 km/h (2 Bft) NW 322 10 min 0,000 mm 798 W/m 10,7 C 20,7 C 22,5 km/h (4 Bft) 100 %
19.06.2014 12:30 22,1 C 21,8 C 22,1 C 52 % 1016,4 hPa 0,0 l/m 9,3 km/h (2 Bft) NW 313 10 min 0,000 mm 939 W/m 11,8 C 21,2 C 20,9 km/h (4 Bft) 100 %
19.06.2014 12:40 22,4 C 22,1 C 22,5 C 50 % 1016,4 hPa 0,0 l/m 9,4 km/h (2 Bft) N 349 10 min 0,000 mm 318 W/m 11,5 C 21,5 C 20,9 km/h (4 Bft) 100 %
19.06.2014 12:50 22,4 C 22,3 C 22,4 C 52 % 1016,3 hPa 0,0 l/m 7,8 km/h (2 Bft) N 351 10 min 0,000 mm 902 W/m 12,1 C 21,9 C 20,9 km/h (4 Bft) 100 %
19.06.2014 13:00 22,3 C 22,3 C 22,6 C 49 % 1016,3 hPa 0,0 l/m 9,2 km/h (2 Bft) W-NW 296 10 min 0,432 mm 332 W/m 11,1 C 21,4 C 20,9 km/h (4 Bft) 100 %
19.06.2014 13:10 22,3 C 22,1 C 22,3 C 46 % 1016,2 hPa 0,0 l/m 10,0 km/h (2 Bft) NW 305 10 min 0,000 mm 837 W/m 10,1 C 21,2 C 24,1 km/h (4 Bft) 100 %
19.06.2014 13:20 22,1 C 22,1 C 22,3 C 49 % 1016,2 hPa 0,0 l/m 11,8 km/h (2 Bft) NW 305 10 min 0,000 mm 332 W/m 10,9 C 20,5 C 30,6 km/h (5 Bft) 100 %
19.06.2014 13:30 22,2 C 21,9 C 22,2 C 48 % 1016,0 hPa 0,0 l/m 7,6 km/h (2 Bft) W-NW 297 10 min 0,000 mm 1018 W/m 10,7 C 21,8 C 17,7 km/h (3 Bft) 100 %
19.06.2014 13:40 22,7 C 22,2 C 22,7 C 45 % 1016,1 hPa 0,0 l/m 15,5 km/h (3 Bft) NW 307 10 min 0,000 mm 958 W/m 10,1 C 20,4 C 29,0 km/h (5 Bft) 100 %
19.06.2014 13:50 23,1 C 22,7 C 23,1 C 45 % 1016,1 hPa 0,0 l/m 10,7 km/h (2 Bft) NW 322 10 min 0,000 mm 585 W/m 10,5 C 21,9 C 24,1 km/h (4 Bft) 100 %
19.06.2014 14:00 22,9 C 22,9 C 23,1 C 44 % 1016,1 hPa 0,0 l/m 10,5 km/h (2 Bft) W 281 10 min 0,559 mm 689 W/m 10,0 C 21,7 C 25,7 km/h (4 Bft) 100 %
19.06.2014 14:10 22,7 C 22,7 C 22,9 C 46 % 1016,1 hPa 0,0 l/m 10,1 km/h (2 Bft) NW 325 10 min 0,000 mm 710 W/m 10,5 C 21,6 C 20,9 km/h (4 Bft) 100 %
19.06.2014 14:20 23,0 C 22,7 C 23,0 C 45 % 1015,8 hPa 0,0 l/m 3,7 km/h (1 Bft) N-NW 344 10 min 0,000 mm 663 W/m 10,4 C 23,0 C 16,1 km/h (3 Bft) 100 %
19.06.2014 14:30 22,9 C 22,9 C 23,1 C 46 % 1015,8 hPa 0,0 l/m 6,8 km/h (2 Bft) W-NW 290 10 min 0,000 mm 888 W/m 10,7 C 22,8 C 20,9 km/h (4 Bft) 100 %
19.06.2014 14:40 22,6 C 22,6 C 22,9 C 46 % 1015,8 hPa 0,0 l/m 6,1 km/h (2 Bft) W 281 10 min 0,000 mm 237 W/m 10,4 C 22,6 C 19,3 km/h (3 Bft) 100 %
19.06.2014 14:50 21,9 C 21,9 C 22,6 C 46 % 1015,7 hPa 0,0 l/m 10,1 km/h (2 Bft) NW 321 10 min 0,000 mm 332 W/m 9,7 C 20,7 C 24,1 km/h (4 Bft) 100 %
19.06.2014 15:00 21,7 C 21,7 C 21,9 C 48 % 1015,7 hPa 0,0 l/m 12,3 km/h (3 Bft) NW 304 10 min 0,381 mm 376 W/m 10,2 C 19,9 C 24,1 km/h (4 Bft) 100 %
19.06.2014 15:10 22,1 C 21,7 C 22,1 C 46 % 1015,7 hPa 0,0 l/m 10,7 km/h (2 Bft) W-NW 302 10 min 0,000 mm 248 W/m 9,9 C 20,8 C 22,5 km/h (4 Bft) 100 %
19.06.2014 15:20 22,6 C 22,1 C 22,6 C 44 % 1015,6 hPa 0,0 l/m 8,9 km/h (2 Bft) NW 313 10 min 0,000 mm 958 W/m 9,7 C 21,8 C 19,3 km/h (3 Bft) 100 %
19.06.2014 15:30 22,9 C 22,6 C 23,0 C 45 % 1015,5 hPa 0,0 l/m 9,9 km/h (2 Bft) N-NW 330 10 min 0,000 mm 216 W/m 10,3 C 21,9 C 20,9 km/h (4 Bft) 100 %
19.06.2014 15:40 22,8 C 22,5 C 22,9 C 49 % 1015,5 hPa 0,0 l/m 9,0 km/h (2 Bft) W-NW 290 10 min 0,000 mm 905 W/m 11,5 C 22,0 C 20,9 km/h (4 Bft) 100 %
19.06.2014 15:50 23,6 C 22,8 C 23,6 C 44 % 1015,6 hPa 0,0 l/m 8,9 km/h (2 Bft) W-NW 296 10 min 0,000 mm 645 W/m 10,6 C 22,9 C 20,9 km/h (4 Bft) 100 %
19.06.2014 16:00 22,8 C 22,8 C 23,6 C 45 % 1015,5 hPa 0,0 l/m 11,4 km/h (2 Bft) W-NW 292 10 min 0,432 mm 206 W/m 10,2 C 21,4 C 22,5 km/h (4 Bft) 100 %
19.06.2014 16:10 22,2 C 22,2 C 22,8 C 45 % 1015,6 hPa 0,0 l/m 14,4 km/h (3 Bft) W-NW 288 10 min 0,000 mm 701 W/m 9,7 C 20,0 C 30,6 km/h (5 Bft) 100 %
19.06.2014 16:20 22,7 C 22,2 C 22,7 C 44 % 1015,5 hPa 0,0 l/m 13,3 km/h (3 Bft) W-NW 296 10 min 0,000 mm 745 W/m 9,8 C 20,9 C 25,7 km/h (4 Bft) 100 %
19.06.2014 16:30 23,1 C 22,7 C 23,1 C 43 % 1015,4 hPa 0,0 l/m 13,2 km/h (3 Bft) NW 313 10 min 0,000 mm 677 W/m 9,8 C 21,3 C 24,1 km/h (4 Bft) 100 %
19.06.2014 16:40 23,1 C 23,1 C 23,1 C 41 % 1015,4 hPa 0,0 l/m 12,6 km/h (3 Bft) W-NW 294 10 min 0,000 mm 671 W/m 9,1 C 21,5 C 24,1 km/h (4 Bft) 100 %
19.06.2014 16:50 23,1 C 23,1 C 23,1 C 42 % 1015,3 hPa 0,0 l/m 11,1 km/h (2 Bft) NW 316 10 min 0,000 mm 513 W/m 9,5 C 21,8 C 20,9 km/h (4 Bft) 100 %
19.06.2014 17:00 23,2 C 23,1 C 23,2 C 42 % 1015,2 hPa 0,0 l/m 11,3 km/h (2 Bft) W-NW 296 10 min 0,457 mm 332 W/m 9,6 C 21,9 C 25,7 km/h (4 Bft) 100 %
19.06.2014 17:10 23,1 C 23,1 C 23,2 C 43 % 1015,1 hPa 0,0 l/m 14,0 km/h (3 Bft) W-NW 287 10 min 0,000 mm 439 W/m 9,8 C 21,2 C 27,4 km/h (4 Bft) 100 %
19.06.2014 17:20 22,9 C 22,9 C 23,1 C 41 % 1015,1 hPa 0,0 l/m 14,3 km/h (3 Bft) W-NW 303 10 min 0,000 mm 563 W/m 8,9 C 20,9 C 33,8 km/h (5 Bft) 100 %
19.06.2014 17:30 22,8 C 22,8 C 22,9 C 42 % 1015,0 hPa 0,0 l/m 11,0 km/h (2 Bft) W-NW 296 10 min 0,000 mm 171 W/m 9,2 C 21,5 C 22,5 km/h (4 Bft) 100 %
19.06.2014 17:40 22,9 C 22,8 C 22,9 C 38 % 1014,9 hPa 0,0 l/m 12,0 km/h (2 Bft) N-NW 331 10 min 0,000 mm 476 W/m 7,8 C 21,4 C 24,1 km/h (4 Bft) 100 %
19.06.2014 17:50 22,8 C 22,8 C 22,9 C 41 % 1014,8 hPa 0,0 l/m 9,4 km/h (2 Bft) NW 310 10 min 0,000 mm 499 W/m 8,9 C 21,9 C 19,3 km/h (3 Bft) 100 %
19.06.2014 18:00 22,8 C 22,8 C 22,9 C 40 % 1014,8 hPa 0,0 l/m 10,3 km/h (2 Bft) NW 326 10 min 0,381 mm 446 W/m 8,5 C 21,7 C 20,9 km/h (4 Bft) 100 %
19.06.2014 18:10 22,7 C 22,7 C 22,8 C 42 % 1014,7 hPa 0,0 l/m 11,3 km/h (2 Bft) NW 304 10 min 0,000 mm 197 W/m 9,1 C 21,3 C 25,7 km/h (4 Bft) 100 %
19.06.2014 18:20 22,6 C 22,6 C 22,7 C 41 % 1014,7 hPa 0,0 l/m 9,0 km/h (2 Bft) W-NW 290 10 min 0,000 mm 373 W/m 8,7 C 21,8 C 19,3 km/h (3 Bft) 100 %
19.06.2014 18:30 22,2 C 22,2 C 22,6 C 42 % 1014,7 hPa 0,0 l/m 9,6 km/h (2 Bft) NW 319 10 min 0,000 mm 246 W/m 8,7 C 21,2 C 22,5 km/h (4 Bft) 100 %
19.06.2014 18:40 21,9 C 21,9 C 22,2 C 42 % 1014,7 hPa 0,0 l/m 13,8 km/h (3 Bft) NW 306 10 min 0,000 mm 332 W/m 8,4 C 19,8 C 25,7 km/h (4 Bft) 100 %
19.06.2014 18:50 21,8 C 21,8 C 21,9 C 42 % 1014,6 hPa 0,0 l/m 11,6 km/h (2 Bft) W-NW 302 10 min 0,000 mm 345 W/m 8,3 C 20,2 C 22,5 km/h (4 Bft) 100 %
19.06.2014 19:00 21,8 C 21,8 C 21,8 C 44 % 1014,6 hPa 0,0 l/m 7,8 km/h (2 Bft) NW 324 10 min 0,000 mm 311 W/m 9,0 C 21,3 C 20,9 km/h (4 Bft) 100 %
19.06.2014 19:10 21,8 C 21,8 C 21,9 C 44 % 1014,8 hPa 0,0 l/m 10,1 km/h (2 Bft) NW 323 10 min 0,279 mm 281 W/m 9,0 C 20,6 C 22,5 km/h (4 Bft) 100 %
19.06.2014 19:20 21,8 C 21,8 C 21,8 C 45 % 1014,9 hPa 0,0 l/m 6,6 km/h (2 Bft) W-NW 302 10 min 0,000 mm 244 W/m 9,3 C 21,7 C 17,7 km/h (3 Bft) 100 %
19.06.2014 19:30 21,8 C 21,8 C 21,8 C 44 % 1014,8 hPa 0,0 l/m 6,3 km/h (2 Bft) W-NW 299 10 min 0,000 mm 216 W/m 9,0 C 21,8 C 17,7 km/h (3 Bft) 100 %
19.06.2014 19:40 21,6 C 21,6 C 21,8 C 45 % 1014,8 hPa 0,0 l/m 8,1 km/h (2 Bft) NW 318 10 min 0,000 mm 185 W/m 9,2 C 21,0 C 17,7 km/h (3 Bft) 100 %
19.06.2014 19:50 21,1 C 21,1 C 21,6 C 47 % 1014,7 hPa 0,0 l/m 8,7 km/h (2 Bft) NW 313 0 min 0,000 mm 32 W/m 9,3 C 20,3 C 17,7 km/h (3 Bft) 100 %
19.06.2014 20:00 20,6 C 20,6 C 21,1 C 46 % 1014,8 hPa 0,0 l/m 5,1 km/h (1 Bft) NW 312 0 min 0,178 mm 30 W/m 8,6 C 20,6 C 14,5 km/h (3 Bft) 100 %
19.06.2014 20:10 20,1 C 20,1 C 20,6 C 48 % 1014,8 hPa 0,0 l/m 2,2 km/h (1 Bft) NW 317 0 min 0,000 mm 40 W/m 8,7 C 20,1 C 8,0 km/h (2 Bft) 100 %
19.06.2014 20:20 19,7 C 19,7 C 20,1 C 50 % 1014,8 hPa 0,0 l/m 2,8 km/h (1 Bft) N-NW 337 0 min 0,000 mm 46 W/m 9,0 C 19,7 C 9,7 km/h (2 Bft) 100 %
19.06.2014 20:30 19,3 C 19,3 C 19,7 C 53 % 1014,8 hPa 0,0 l/m 2,0 km/h (1 Bft) N-NW 331 0 min 0,000 mm 42 W/m 9,5 C 19,3 C 9,7 km/h (2 Bft) 100 %
19.06.2014 20:40 19,1 C 19,1 C 19,3 C 54 % 1014,8 hPa 0,0 l/m 2,1 km/h (1 Bft) N-NW 329 0 min 0,000 mm 46 W/m 9,6 C 19,1 C 9,7 km/h (2 Bft) 100 %
19.06.2014 20:50 18,8 C 18,8 C 19,1 C 55 % 1014,9 hPa 0,0 l/m 2,5 km/h (1 Bft) N-NW 340 0 min 0,000 mm 28 W/m 9,6 C 18,8 C 8,0 km/h (2 Bft) 100 %
19.06.2014 21:00 18,6 C 18,6 C 18,8 C 56 % 1014,8 hPa 0,0 l/m 5,3 km/h (1 Bft) N-NW 335 0 min 0,051 mm 19 W/m 9,6 C 18,6 C 16,1 km/h (3 Bft) 100 %
19.06.2014 21:10 18,3 C 18,3 C 18,6 C 57 % 1014,9 hPa 0,0 l/m 3,2 km/h (1 Bft) NW 324 0 min 0,000 mm 9 W/m 9,6 C 18,3 C 9,7 km/h (2 Bft) 100 %
19.06.2014 21:20 18,1 C 18,1 C 18,3 C 59 % 1015,0 hPa 0,0 l/m 4,8 km/h (1 Bft) N-NW 337 0 min 0,000 mm 9 W/m 10,0 C 18,1 C 17,7 km/h (3 Bft) 100 %
19.06.2014 21:30 17,8 C 17,8 C 18,1 C 60 % 1015,0 hPa 0,0 l/m 4,8 km/h (1 Bft) N-NW 337 0 min 0,000 mm 0 W/m 9,9 C 17,8 C 14,5 km/h (3 Bft) 100 %
19.06.2014 21:40 17,5 C 17,5 C 17,8 C 61 % 1015,0 hPa 0,0 l/m 4,8 km/h (1 Bft) N-NW 337 0 min 0,000 mm 0 W/m 9,9 C 17,5 C 11,3 km/h (2 Bft) 100 %
19.06.2014 21:50 17,2 C 17,2 C 17,5 C 62 % 1015,0 hPa 0,0 l/m 4,8 km/h (1 Bft) N-NW 337 0 min 0,000 mm 0 W/m 9,9 C 17,2 C 17,7 km/h (3 Bft) 100 %
19.06.2014 22:00 17,0 C 17,0 C 17,2 C 62 % 1015,1 hPa 0,0 l/m 6,4 km/h (2 Bft) N-NW 337 0 min 0,025 mm 0 W/m 9,7 C 17,0 C 16,1 km/h (3 Bft) 100 %
19.06.2014 22:10 16,9 C 16,8 C 17,0 C 63 % 1015,3 hPa 0,0 l/m 12,9 km/h (3 Bft) NW 315 0 min 0,000 mm 0 W/m 9,8 C 14,2 C 25,7 km/h (4 Bft) 100 %
19.06.2014 22:20 16,7 C 16,7 C 16,8 C 63 % 1015,3 hPa 0,0 l/m 12,9 km/h (3 Bft) NW 315 0 min 0,000 mm 0 W/m 9,6 C 13,9 C 20,9 km/h (4 Bft) 100 %
19.06.2014 22:30 16,4 C 16,4 C 16,7 C 65 % 1015,4 hPa 0,0 l/m 11,3 km/h (2 Bft) NW 315 0 min 0,000 mm 0 W/m 9,8 C 14,1 C 22,5 km/h (4 Bft) 100 %
19.06.2014 22:40 16,3 C 16,3 C 16,4 C 66 % 1015,5 hPa 0,0 l/m 11,3 km/h (2 Bft) NW 315 0 min 0,000 mm 0 W/m 9,9 C 14,0 C 20,9 km/h (4 Bft) 100 %
19.06.2014 22:50 16,1 C 16,1 C 16,3 C 67 % 1015,5 hPa 0,0 l/m 8,0 km/h (2 Bft) NW 315 0 min 0,000 mm 0 W/m 10,0 C 15,3 C 17,7 km/h (3 Bft) 100 %
19.06.2014 23:00 15,9 C 15,9 C 16,1 C 67 % 1015,6 hPa 0,0 l/m 6,4 km/h (2 Bft) N-NW 337 0 min 0,051 mm 0 W/m 9,8 C 15,9 C 19,3 km/h (3 Bft) 100 %
19.06.2014 23:10 15,8 C 15,8 C 15,9 C 67 % 1015,6 hPa 0,0 l/m 4,8 km/h (1 Bft) N-NW 337 0 min 0,000 mm 0 W/m 9,7 C 15,8 C 17,7 km/h (3 Bft) 100 %
19.06.2014 23:20 15,6 C 15,6 C 15,8 C 68 % 1015,5 hPa 0,0 l/m 1,6 km/h (1 Bft) N-NW 337 0 min 0,000 mm 0 W/m 9,7 C 15,6 C 12,9 km/h (3 Bft) 100 %
19.06.2014 23:30 15,4 C 15,4 C 15,6 C 69 % 1015,5 hPa 0,0 l/m 0,0 km/h (0 Bft) N-NW 337 0 min 0,000 mm 0 W/m 9,7 C 15,4 C 6,4 km/h (2 Bft) 100 %
19.06.2014 23:40 15,3 C 15,3 C 15,4 C 69 % 1015,6 hPa 0,0 l/m 4,8 km/h (1 Bft) NW 315 0 min 0,000 mm 0 W/m 9,6 C 15,3 C 19,3 km/h (3 Bft) 100 %
19.06.2014 23:50 15,3 C 15,3 C 15,3 C 69 % 1015,8 hPa 0,0 l/m 4,8 km/h (1 Bft) N-NW 337 0 min 0,000 mm 0 W/m 9,6 C 15,3 C 19,3 km/h (3 Bft) 100 %
_ Min-Zeit 06:20 06:20 06:20 17:40 18:50 - 00:00 - - - - - 17:40 06:20 00:00 04:40
Minimum _ 10,3 C 10,3 C 10,4 C 38 % 1014,6 hPa - 0,0 km/h (0 Bft) - - - - - 7,8 C 10,3 C 0,0 km/h (0 Bft) 91 %
_ Max-Zeit 15:50 16:40 15:50 06:20 08:30 00:00 13:40 - - 08:20 00:10 13:30 09:00 14:20 17:20 00:00
Maximum _ 23,6 C 23,1 C 23,6 C 86 % 1017,6 hPa 0,0 l/m 15,5 km/h
NW (3 Bft)
- - 10 min 4,978 mm 1018 W/m 12,3 C 23,0 C 33,8 km/h
NW (5 Bft)
100 %
Durchschnitt _ 17,7 C 17,6 C 17,9 C 62 % 1016,3 hPa #0,0 l/m 4,6 km/h (1 Bft) NW - #11:30 h #9,652 mm 382 W/m 9,9 C 17,3 C 12,0 km/h (2 Bft) 100 %
PRIVATE WETTERSTATION BILLIGHEIM-ALLFELD - www.neckar-odenwald-wetter.de - Holger Sonntag